Погода в Нижнем Новгороде

Россия / Нижегородская область     56°19′36″N   44°00′21″E
темп.,
°C
ветер,
м/с
пор.,
м/с
влажн.,
%
обл.,
%
осадки,
мм/ч
давл.,
гПа
погр.,
м
13 августа, сб
сб1300:00+18з24626 0.0 102289
03:00+17з236912 0.0 102264
06:00+17сз1272100 0.0 102381
09:00+22ссз2258100 0.0 1022464
12:00+25ссз2248100 0.0 10221183
15:00+26с2244100 0.0 10211604
18:00+25ссз225294 0.0 1021272
21:00+21св116099 0.0 102113
14 августа, вс
вс1400:00+19вюв1167100 0.0 102111
03:00+18юв117291 0.0 102111
06:00+18вюв127069 0.0 102256
09:00+23вюв2252100 0.0 1022425
12:00+27вюв224268 0.0 10211641
15:00+27юв224087 0.0 10212088
18:00+26юв234875 0.0 1020397
21:00+22вюв235982 0.0 102175
15 августа, пн
пн1500:00+20юв246569 0.0 1021113
03:00+19ююв226861 0.0 102289
06:00+19юв136768 0.0 1023113
09:00+23юв23525 0.0 1023508
12:00+26ююв32428 0.0 10241240
15:00+28юв123811 0.0 10232135
18:00+25вюв355229 0.0 1023343
21:00+21юв23636 0.0 102477
16 августа, вт
вт1600:00+20юв126497 0.0 102456
03:00+20юв116097 0.0 102557
06:00+20вюв1161100 0.0 102652
09:00+23вюв2250100 0.0 1026541
12:00+27вюв234311 0.0 10251860
15:00+28вюв343750 0.0 10242376
18:00+26юв354697 0.0 10241055
21:00+21юв255798 0.0 1024158
17 августа, ср
ср1700:00+19вюв256730 0.0 1025158
03:00+17вюв24695 0.0 1025118
06:00+17вюв25660 0.0 1025143
09:00+22вюв35510 0.0 1025579
12:00+26вюв45390 0.0 10231603
15:00+27юв44350 0.0 10221926
18:00+25вюв34432 0.0 10221119
21:00+20вюв37580 0.0 1022192